Hourly Data Report for December 18, 2011

HALIFAX STANFIELD INT'L A
NOVA SCOTIA

44°52'48.060" N
63°30'00.050" W
145.40 m
8202250
71395
YHZ

Download Data

Hourly Data (December 2011)
Hourly Data Report for December 18, 2011
TIME
LST
Temp Definition
°C
Dew Point Definition
°C
Rel Hum Definition
%
Precip. Amount Definition
mm

Wind Dir Definition
10's deg

Wind Spd Definition
km/h
Visibility Definition
km
Stn Press Definition
kPa
Hmdx Definition


Wind Chill Definition


Weather Definition


00:00 -4.5 -7.8 78   2 15 24.1 100.06   -10 Snow
01:00 -4.9 -5.8 93   1 19 24.1 100.03   -11 Snow
02:00 -5.3 -8.6 78   2 24 24.1 100.06   -13 Snow
03:00 -5.9 -8.5 82   1 17 19.3 100.06   -12 Snow
04:00 -5.9 -8.4 82   36 17 19.3 100.06   -12 Snow
05:00 -6.0 -7.8 87   1 20 8.0 100.05   -13 Snow
06:00 -6.0 -7.4 90   36 17 12.9 100.06   -12 Snow
07:00 -6.1 -7.4 90   36 19 12.9 100.07   -13 Snow
08:00 -6.5 -7.6 92   36 15 19.3 100.08   -12 Mainly Clear
09:00 -6.0 -7.3 90   36 13 24.1 100.11   -11 Mostly Cloudy
10:00 -4.4 -8.7 72   2 28 24.1 100.09   -12 Mostly Cloudy
11:00 -2.9 -9.0 63   1 26 24.1 100.06   -10 Mostly Cloudy
12:00 -2.4 -8.6 62   3 22 24.1 99.99   -9 Mostly Cloudy
13:00 -2.1 -7.9 64   2 20 24.1 99.94   -8 Cloudy
14:00 -2.5 -7.3 70   36 24 9.7 99.91   -9 Snow Showers
15:00 -2.8 -6.0 79   36 22 12.9 99.93   -9 Snow Showers
16:00 -3.2 -5.8 82   36 22 16.1 99.93   -10 Snow Showers
17:00 -4.0 -6.5 83   1 22 24.1 99.97   -11 Mainly Clear
18:00 -3.8 -6.5 81   1 19 24.1 100.02   -10 Mostly Cloudy
19:00 -3.7 -6.4 81   1 28 24.1 100.08   -11 Snow Showers
20:00 -3.8 -6.9 79   2 22 24.1 100.14   -10 Snow Showers
21:00 -4.1 -7.0 80   1 26 19.3 100.13   -11 Snow Showers
22:00 -4.5 -6.8 84   36 20 9.7 100.07   -11 Snow Showers
23:00 -4.7 -6.9 85   1 19 24.1 100.09   -11 Snow Showers

Notes on Data Quality.

Legend

  • E = Estimated
  • M = Missing
  • NA = Not Available*
  • [empty] = Indicates an unobserved value
Date modified: